Regional Weather Roundup
Issued by NWS

Home | Current Version | Previous Version | Text Only | Print | Product List | Glossary Off
Versions: 1 2 3 4 5 6 7 8 9 10 11 12 13 14 15 16 17 18 19 20 21 22 23 24 25 26 27 28 29 30 31 32 33 34 35 36 37 38 39 40 41 42 43 44 45 46 47 48 49 50

000
ASUS43 KMKX 291700
RWRWI

WISCONSIN REGIONAL WEATHER ROUNDUP
NATIONAL WEATHER SERVICE MILWAUKEE/SULLIVAN WI
1200 PM CDT MON AUG 29 2016

NOTE: "FAIR" INDICATES FEW OR NO CLOUDS BELOW 12,000 FEET WITH NO
SIGNIFICANT WEATHER AND/OR OBSTRUCTIONS TO VISIBILITY.

WIZ001-002-006>008-014>016-023>028-291800-
NORTHWEST WISCONSIN

CITY           SKY/WX    TMP DP  RH WIND       PRES   REMARKS
SUPERIOR ARPT  PTSUNNY   72  64  76 SW3       30.12F
ASHLAND        PTSUNNY   77  66  68 S9        30.14F
HAYWARD        MOSUNNY   74  63  68 VRB3      30.17R
SIREN          MOSUNNY   79  65  62 S13G18    30.12F HX  80
CUMBERLAND     MOSUNNY   77  64  65 S13G21    30.16F
RICE LAKE      MOSUNNY   79  66  65 S14G20    30.19F HX  81
CHETEK         NOT AVBL
LADYSMITH      CLOUDY    78  67  68 S13       30.20F HX  80
EAU CLAIRE     CLOUDY    76  69  79 SE8       30.23F
MENOMONIE      PTSUNNY   79  70  74 SE13      30.21F HX  81
NEW RICHMOND   CLOUDY    79  67  67 S13       30.19F HX  81
OSCEOLA        SUNNY     79  72  78 S21G28    30.17F HX  82
$$

WIZ003>005-009-010-017-018-291800-
NORTH CENTRAL WISCONSIN

CITY           SKY/WX    TMP DP  RH WIND       PRES   REMARKS
MANITOWISH WTR NOT AVBL
ARBOR VITAE    PTSUNNY   77  67  71 SW8       30.21R
WOODRUFF       PTSUNNY   77  67  71 SW8       30.21R
RHINELANDER    PTSUNNY   77  66  68 S15       30.21F
EAGLE RIVER    MOSUNNY   74  62  65 S7        30.21F
LAND O LAKES   PTSUNNY   76  64  65 S6        30.22S
PHILLIPS       CLOUDY    75  67  76 S9        30.20S
TOMAHAWK       MOSUNNY   75  65  71 S3        30.24F
MEDFORD        CLOUDY    75  71  87 SE6       30.25F
MERRILL        MOSUNNY   78  68  72 SW10      30.24F
$$

WIZ029-030-035-036-043>047-291800-
CENTRAL WISCONSIN

CITY           SKY/WX    TMP DP  RH WIND       PRES   REMARKS
WAUSAU         PTSUNNY   75  67  76 SW7       30.24F
MOSINEE        CLOUDY    75  70  83 S7        30.27F
MARSHFIELD     CLOUDY    76  68  76 NW3       30.26F
STEVENS POINT  CLOUDY    76  68  74 SW7       30.27F
WAUPACA        PTSUNNY   82  70  67 S7        30.26S HX  85
WAUTOMA        MOSUNNY   80  71  74 VRB7      30.26F HX  84
WISC RAPIDS    CLOUDY    79  70  74 S6        30.27F HX  82
CAMP DOUGLAS   NOT AVBL
$$

WIZ011>013-019>022-031-037>040-048>050-291800-
NORTHEAST WISCONSIN

CITY           SKY/WX    TMP DP  RH WIND       PRES   REMARKS
ANTIGO         CLOUDY    73  68  82 SW7       30.27F
SHAWANO        SUNNY     81  69  68 S5        30.25F HX  84
OCONTO         NOT AVBL
STURGEON BAY   MOSUNNY   78  68  71 S10       30.25F HX  80
GREEN BAY      SUNNY     79  72  79 MISG      30.24F HX  82
MANITOWOC      NOT AVBL
APPLETON       PTSUNNY   79  66  65 SW8       30.26S HX  81
CLINTONVILLE   CLOUDY    79  66  65 SW5       30.25F HX  81
OSHKOSH        CLOUDY    76  68  76 NE5       30.27S
$$

WIZ032>034-041-042-053>061-291800-
SOUTHWEST WISCONSIN

CITY           SKY/WX    TMP DP  RH WIND       PRES   REMARKS
LA CROSSE      MOSUNNY   84  71  65 CALM      30.23F HX  89
SPARTA         MOSUNNY   80  70  70 N6        30.26R HX  83
VIROQUA        MOSUNNY   78  69  74 S3        30.28F HX  80
BOSCOBEL       LGT RAIN  76  70  82 NE6       30.27R
PRAIRIE DU CHI CLOUDY    74  69  83 CALM      30.26R
PLATTEVILLE    CLOUDY    74  72  95 E3        30.28S
$$

WIZ056-057-062-063-064-067-068-291800-
SOUTH CENTRAL WISCONSIN

CITY           SKY/WX    TMP DP  RH WIND       PRES   REMARKS
REEDSBURG      NOT AVBL
BARABOO/DELLS  CLOUDY    79  68  69 CALM      30.28S HX  81
LONE ROCK      CLOUDY    75  70  83 CALM      30.28S
MINERAL POINT  CLOUDY    73  72  94 CALM      30.29R
MADISON        CLOUDY    78  69  73 CALM      30.27R HX  80
MIDDLETON      CLOUDY    78  69  73 CALM      30.29R HX  80
WATERTOWN      SUNNY     80  71  73 CALM      30.27R HX  84
MONROE         CLOUDY    77  70  78 SE3       30.28R
JANESVILLE     PTSUNNY   82  70  65 SE6       30.26R HX  86
$$

WIZ051-052-058>065-066-070>072-291800-
SOUTHEAST WISCONSIN

CITY           SKY/WX    TMP DP  RH WIND       PRES   REMARKS
MILWAUKEE      MOSUNNY   81  66  60 E7        30.28R HX  83
WAUKESHA       MOSUNNY   79  66  65 SE5       30.29S HX  81
MILWAUKEE/TIMM SUNNY     79  61  53 E5        30.28S HX  80
RACINE         SUNNY     80  67  64 E6        30.29S HX  82
BURLINGTON     CLOUDY    78  68  70 SE5       30.27S HX  80
KENOSHA        MOSUNNY   80  68  66 SE6       30.28R HX  83
FOND DU LAC    MOSUNNY   83  70  64 N5        30.27S HX  87
SHEBOYGAN      CLOUDY    78  68  71 SE7       30.28R HX  80
WEST BEND      CLOUDY    81  68  65 E3        30.28S HX  83
JUNEAU         SUNNY     78  68  70 CALM      30.29R HX  81
$$

LSZ147-162-291800-
LAKE SUPERIOR

STATION/POSITION TIME  TEMP    WIND        PRES    WAVE
                       AIR SEA DIR/SP/G            HT/PER
                 (UTC) (F)     (DEG/KT/KT) (MB)    (FT/S)
W MID LAKE BUOY  1550   66 67  270/  6/  8 1020.0S   2/ 4
DEVILS ISLAND    1600   66     340/  5/  6 1020.5R
PORT WING        1540   70     230/  5/  7 1020.3S
SAXON HARBOR     1600   74     210/  4/  5 1020.3F
$$

LMZ867-665-643>646-291800-
LAKE MICHIGAN

STATION/POSITION TIME  TEMP    WIND        PRES    WAVE
                       AIR SEA DIR/SP/G            HT/PER
                 (UTC) (F)     (DEG/KT/KT) (MB)    (FT/S)
CHAMBERS ISLAND  1600   74     120/  4/  9 1024.0
N MID LAKE BUOY  1550   69 71  190/  6/  6 1024.6R   1/ 3
NORTHPORT PIER   1600   71     140/  9/ 13 1024.4F
SISTER BAY       1607   79     150/  9/ 12   N/A
KEWAUNEE LAKESHO 1600   72     110/  3/  4 1024.5F
SHEBOYGAN LAKESH 1600   65      40/  5/  5 1024.9R
PORT WASHINGTON  1640   72      50/  3/  4 1025.7R
ATWATER BUOY     1600   66     360/  2/  4   N/A
MILWAUKEE LAKESH 1610   66      30/  6/  6   N/A
S MID LAKE BUOY  1550   74 75  120/  6/  8 1024.2R   0
KENOSHA   LAKESH 1600   69      20/  4/  4 1024.7R
$$

TC  - TEMPERATURE IN CELSIUS
VSB - VISIBILITY IN STATUTE MILES
WCI - WIND CHILL INDEX
HX  - HEAT INDEX





USA.gov is the U.S. government's official web portal to all federal, state and local government web resources and services.